TimeCAT,TemperatureF,Dew PointF,Humidity,Sea Level PressureIn,VisibilityMPH,Wind Direction,Wind SpeedMPH,Gust SpeedMPH,PrecipitationIn,Events,Conditions,WindDirDegrees,DateUTC
12:00 AM,78.8,46.4,32,29.98,-9999.0,North,3.5,-,N/A,,Clear,360,2012-11-06 22:00:00
1:00 AM,77.0,44.6,32,29.95,-9999.0,North,3.5,-,N/A,,Clear,360,2012-11-06 23:00:00
5:00 AM,75.2,51.8,44,29.95,-9999.0,North,3.5,-,N/A,,Clear,360,2012-11-07 03:00:00
6:00 AM,73.4,53.6,50,29.95,-9999.0,North,3.5,-,N/A,,Clear,10,2012-11-07 04:00:00
7:00 AM,77.0,53.6,44,29.98,-9999.0,NNW,6.9,-,N/A,,Clear,340,2012-11-07 05:00:00
8:00 AM,85,57,28,,6,NW,9.2,,,,Scattered Clouds,310,2012-11-07 06:00:00
8:00 AM,86.0,57.2,37,30.01,-9999.0,NW,9.2,-,N/A,,Clear,310,2012-11-07 06:00:00
9:00 AM,91.4,57.2,31,30.01,-9999.0,WNW,9.2,-,N/A,,Clear,300,2012-11-07 07:00:00
10:00 AM,93.2,55.4,28,30.01,-9999.0,WNW,13.8,-,N/A,,Clear,290,2012-11-07 08:00:00
11:00 AM,96.8,57.2,27,29.98,-9999.0,WNW,9.2,-,N/A,,Clear,300,2012-11-07 09:00:00
12:00 PM,98.6,55.4,24,29.98,6.2,NW,9.2,-,N/A,,Partly Cloudy,320,2012-11-07 10:00:00
1:00 PM,100.4,55.4,22,29.95,6.2,NW,10.4,-,N/A,,Partly Cloudy,320,2012-11-07 11:00:00
2:00 PM,101,56,14,,6,NNW,10.4,,,,Partly Cloudy,340,2012-11-07 12:00:00
2:00 PM,100.4,55.4,22,29.92,6.2,NNW,10.4,-,N/A,,Partly Cloudy,340,2012-11-07 12:00:00
3:00 PM,100.4,53.6,21,29.89,6.2,NNW,6.9,-,N/A,,Partly Cloudy,340,2012-11-07 13:00:00
4:00 PM,102.2,53.6,20,29.89,6.2,NNE,8.1,-,N/A,,Partly Cloudy,20,2012-11-07 14:00:00
5:00 PM,100.4,53.6,21,29.86,6.2,NW,5.8,-,N/A,,Partly Cloudy,320,2012-11-07 15:00:00
6:00 PM,100.4,53.6,21,29.89,6.2,NW,4.6,-,N/A,,Partly Cloudy,320,2012-11-07 16:00:00
7:00 PM,96.8,55.4,25,29.89,6.2,North,4.6,-,N/A,,Partly Cloudy,10,2012-11-07 17:00:00
8:00 PM,92,56,20,,6,NNE,5.8,,,,Scattered Clouds,20,2012-11-07 18:00:00
8:00 PM,93.2,55.4,28,29.92,-9999.0,NNE,5.8,-,N/A,,Clear,20,2012-11-07 18:00:00
11:00 PM,86.0,55.4,35,29.92,-9999.0,NNE,3.5,-,N/A,,Clear,20,2012-11-07 21:00:00